{"data":{"norad_id":68108,"epoch":"2026-05-24T20:29:42.107712Z","epoch_age_seconds":98100,"freshness":"FRESH","line1":"1 68108U 26044H   26144.85395958  .00019241  00000+0  59651-3 0  9993","line2":"2 68108  97.2829 105.4573 0001241  77.3146 282.8236 15.33459643 13258","mean_motion":15.33459643,"eccentricity":0.0001241,"inclination_deg":97.2829,"raan_deg":105.4573,"arg_perigee_deg":77.3146,"mean_anomaly_deg":282.8236,"bstar":0.00059651,"rev_number":1325,"period_min":93.905307946862,"perigee_km":464.65031225605,"apogee_km":466.34890286204,"semimajor_km":6843.636607559,"source":"CELESTRAK","updated_at":"2026-05-25T13:38:21.842174Z"}}